User: anonymous   Login
Location: Göttingen
(51.5413°N, 9.9158°E)
Time: 23:37:30
(UTC+02:00)
Language:

EO-88 - Orbit

View from above orbital plane
View from above orbital plane
View from above satellite
View from above satellite

Ground track
Ground track

The orbit data is extracted from the following two-line orbital elements,

1 42017U 17008BX  22179.45243635  .00009277  00000-0  27584-3 0  9997
2 42017  97.2686 245.4080 0005094 184.9830 175.1364 15.34950471298766
Epoch (UTC): 28 June 2022 10:51:30
Eccentricity: 0.0005094
inclination: 97.2686°
perigee height: 457 km
apogee height: 464 km
right ascension of ascending node: 245.4080°
argument of perigee: 184.9830°
revolutions per day: 15.34950471
mean anomaly at epoch: 175.1364°
orbit number at epoch: 29876

The dashed part of the orbit path shows where the satellite is in the earth's shadow,  

DLR